Location: Capelle
(50.3413°N, 1.9974°E)
Time: 22:53:23
(UTC+00:00)

Cosmos 1633 Rocket - Pass Details

Date: 12 January 2026
Orbit: 600 x 616 km, 82.5° (Epoch: 7 February)

Event Time Altitude Azimuth Distance (km) Brightness Sun altitude
Rises 18:15:47 0° 343° (NNW) 2,863 6.5 -18.8°
Reaches altitude 10° 18:18:07 10° 336° (NNW) 1,954 5.8 -19.2°
Maximum altitude 18:22:07 38° 268° (W) 918 4.5 -19.8°
Drops below altitude 10° 18:26:05 10° 200° (SSW) 1,938 6.0 -20.4°
Sets 18:28:23 0° 192° (SSW) 2,837 6.7 -20.8°
